When you browse on this site, cookies collect data to enhance your experience and personalize the content and advertising you see.
Visit our Privacy Policy to learn more. By continuing to use the site, you agree to this use of cookies and data.
  • In Hungary
  • List of Countries
  • For 7 days
  • Water Temperature
  • Weather Map
  • News
  • Weather Widgets
  • user-avatar
    Login

    Hourly Weather Milford

    Today, 13 November, Wednesday

    Time Temperature Precipitation Wind Pressure Humidity
    00:00 -8°C° 0 mm 7 mps 767 mmHg 59%
    01:00 -8°C° 0 mm 7 mps 767 mmHg 57%
    02:00 -8°C° 0 mm 7 mps 767 mmHg 56%
    03:00 -8°C° 0 mm 7 mps 768 mmHg 55%
    04:00 -8°C° 0 mm 7 mps 768 mmHg 53%
    05:00 -8°C° 0 mm 7 mps 769 mmHg 54%
    06:00 -8°C° 0 mm 6 mps 769 mmHg 55%
    07:00 -7°C° 0 mm 4 mps 770 mmHg 52%
    08:00 -6°C° 0 mm 5 mps 770 mmHg 48%
    09:00 -5°C° 0 mm 6 mps 771 mmHg 44%
    10:00 -4°C° 0 mm 6 mps 771 mmHg 41%
    11:00 -3°C° 0 mm 6 mps 771 mmHg 38%
    12:00 -1°C° 0 mm 5 mps 770 mmHg 36%
    13:00 0°C° 0 mm 5 mps 770 mmHg 34%
    14:00 0°C° 0 mm 4 mps 770 mmHg 34%
    15:00 +1°C° 0 mm 3 mps 770 mmHg 34%
    16:00 +1°C° 0 mm 3 mps 770 mmHg 34%
    17:00 +1°C° 0 mm 2 mps 771 mmHg 37%
    18:00 -1°C° 0 mm 2 mps 771 mmHg 39%
    19:00 +1°C° 0 mm 1 mps 771 mmHg 41%
    20:00 +1°C° 0 mm 1 mps 772 mmHg 41%
    21:00 0°C° 0 mm 1 mps 772 mmHg 41%
    22:00 0°C° 0 mm 1 mps 772 mmHg 41%
    23:00 0°C° 0 mm 1 mps 772 mmHg 42%

    Tomorrow, 14 November, Thursday

    Time Temperature Precipitation Wind Pressure Humidity
    00:00 0°C° 0 mm 1 mps 772 mmHg 42%
    01:00 0°C° 0 mm 1 mps 772 mmHg 42%
    02:00 0°C° 0 mm 1 mps 771 mmHg 43%
    03:00 0°C° 0 mm 1 mps 771 mmHg 44%
    04:00 0°C° 0 mm 1 mps 771 mmHg 44%
    05:00 0°C° 0 mm 1 mps 771 mmHg 46%
    06:00 0°C° 0 mm 1 mps 771 mmHg 47%
    07:00 +1°C° 0 mm 1 mps 772 mmHg 48%
    08:00 +2°C° 0 mm 1 mps 772 mmHg 48%
    09:00 +3°C° 0 mm 2 mps 772 mmHg 49%
    10:00 +5°C° 0 mm 2 mps 772 mmHg 50%
    11:00 +5°C° 0 mm 3 mps 771 mmHg 51%
    12:00 +6°C° 0 mm 4 mps 771 mmHg 53%
    13:00 +7°C° 0 mm 4 mps 770 mmHg 54%
    14:00 +6°C° 0 mm 4 mps 770 mmHg 60%
    15:00 +7°C° 0 mm 3 mps 769 mmHg 66%
    16:00 +5°C° 0 mm 3 mps 769 mmHg 72%
    17:00 +4°C° 0 mm 3 mps 769 mmHg 77%
    18:00 +3°C° 0 mm 3 mps 769 mmHg 83%
    19:00 +2°C° 0 mm 3 mps 769 mmHg 88%
    20:00 +3°C° 0 mm 3 mps 769 mmHg 87%
    21:00 +4°C° 0 mm 2 mps 769 mmHg 87%
    22:00 +4°C° 0 mm 2 mps 769 mmHg 86%
    23:00 +4°C° 0 mm 2 mps 768 mmHg 86%

    Day after tomorrow, 15 November, Friday

    Time Temperature Precipitation Wind Pressure Humidity
    00:00 +5°C° 0 mm 2 mps 768 mmHg 86%
    01:00 +5°C° 0 mm 2 mps 768 mmHg 87%
    02:00 +5°C° 0 mm 2 mps 768 mmHg 85%
    03:00 +5°C° 0 mm 2 mps 768 mmHg 83%
    04:00 +5°C° 0 mm 2 mps 767 mmHg 81%
    05:00 +4°C° 0 mm 2 mps 767 mmHg 79%
    06:00 +3°C° 0 mm 3 mps 767 mmHg 77%
    07:00 +2°C° 0 mm 3 mps 767 mmHg 74%
    08:00 +5°C° 0 mm 2 mps 767 mmHg 67%
    09:00 +6°C° 0 mm 2 mps 767 mmHg 60%
    10:00 +8°C° 0 mm 1 mps 768 mmHg 53%
    11:00 +8°C° 0 mm 2 mps 767 mmHg 51%
    12:00 +8°C° 0 mm 2 mps 766 mmHg 48%
    13:00 +9°C° 0 mm 3 mps 766 mmHg 45%
    14:00 +9°C° 0 mm 2 mps 765 mmHg 47%
    15:00 +9°C° 0 mm 2 mps 765 mmHg 49%
    16:00 +10°C° 0 mm 1 mps 765 mmHg 51%
    17:00 +8°C° 0 mm 2 mps 765 mmHg 54%
    18:00 +7°C° 0 mm 2 mps 766 mmHg 56%
    19:00 +7°C° 0 mm 3 mps 766 mmHg 58%
    20:00 +5°C° 0 mm 4 mps 766 mmHg 61%
    21:00 +5°C° 0 mm 5 mps 766 mmHg 63%
    22:00 +4°C° 0 mm 6 mps 766 mmHg 65%
    23:00 +3°C° 0 mm 7 mps 766 mmHg 66%

    16 November, Saturday

    Time Temperature Precipitation Wind Pressure Humidity
    00:00 +3°C° 0 mm 7 mps 766 mmHg 67%
    01:00 +2°C° 0 mm 7 mps 766 mmHg 68%
    02:00 +2°C° 0 mm 7 mps 766 mmHg 67%
    03:00 0°C° 0 mm 8 mps 766 mmHg 66%
    04:00 0°C° 0 mm 8 mps 766 mmHg 66%
    05:00 0°C° 0 mm 8 mps 767 mmHg 68%
    06:00 0°C° 0 mm 8 mps 767 mmHg 70%
    07:00 -1°C° 0 mm 9 mps 768 mmHg 72%
    08:00 0°C° 0 mm 9 mps 769 mmHg 64%
    09:00 0°C° 0 mm 9 mps 769 mmHg 56%
    10:00 0°C° 0 mm 9 mps 770 mmHg 48%
    11:00 +1°C° 0 mm 9 mps 769 mmHg 47%
    12:00 +2°C° 0 mm 9 mps 769 mmHg 45%
    13:00 +2°C° 0 mm 9 mps 769 mmHg 44%
    14:00 +2°C° 0 mm 9 mps 769 mmHg 49%
    15:00 +2°C° 0 mm 9 mps 768 mmHg 54%
    16:00 +1°C° 0 mm 9 mps 768 mmHg 58%
    17:00 +1°C° 0 mm 8 mps 768 mmHg 59%
    18:00 +1°C° 0 mm 8 mps 769 mmHg 61%
    19:00 +1°C° 0 mm 8 mps 769 mmHg 62%
    20:00 +1°C° 0 mm 8 mps 769 mmHg 62%
    21:00 +1°C° 0 mm 8 mps 769 mmHg 63%
    22:00 +2°C° 0 mm 8 mps 769 mmHg 64%
    23:00 +2°C° 0 mm 8 mps 768 mmHg 64%

    17 November, Sunday

    Time Temperature Precipitation Wind Pressure Humidity
    00:00 +2°C° 0 mm 8 mps 767 mmHg 64%
    01:00 +2°C° 0 mm 8 mps 767 mmHg 64%
    02:00 +2°C° 0 mm 8 mps 767 mmHg 66%
    03:00 +2°C° 0 mm 8 mps 766 mmHg 67%
    04:00 +2°C° 0 mm 8 mps 766 mmHg 68%
    05:00 +2°C° 0 mm 8 mps 766 mmHg 68%
    06:00 +2°C° 0 mm 8 mps 766 mmHg 69%
    07:00 +1°C° 0 mm 8 mps 766 mmHg 69%
    08:00 +1°C° 0 mm 8 mps 766 mmHg 69%
    09:00 +1°C° 0 mm 8 mps 766 mmHg 69%
    10:00 +2°C° 0 mm 8 mps 765 mmHg 70%
    11:00 +2°C° 0 mm 8 mps 765 mmHg 69%
    12:00 +4°C° 0 mm 8 mps 764 mmHg 69%
    13:00 +4°C° 0 mm 8 mps 764 mmHg 68%
    14:00 +4°C° 0 mm 8 mps 763 mmHg 69%
    15:00 +4°C° 0 mm 8 mps 763 mmHg 70%
    16:00 +4°C° 0 mm 7 mps 763 mmHg 71%
    17:00 +4°C° 0 mm 7 mps 763 mmHg 71%
    18:00 +3°C° 0 mm 7 mps 762 mmHg 72%
    19:00 +3°C° 0 mm 7 mps 762 mmHg 73%
    20:00 +3°C° 0 mm 7 mps 762 mmHg 73%
    21:00 +2°C° 0 mm 7 mps 762 mmHg 73%
    22:00 +2°C° 0 mm 7 mps 762 mmHg 73%
    23:00 +2°C° 0 mm 7 mps 762 mmHg 74%

    18 November, Monday

    Time Temperature Precipitation Wind Pressure Humidity
    00:00 +1°C° 0 mm 6 mps 762 mmHg 76%
    01:00 +1°C° 0 mm 6 mps 762 mmHg 77%
    02:00 +1°C° 0 mm 5 mps 761 mmHg 78%
    03:00 +1°C° 0 mm 5 mps 761 mmHg 80%
    04:00 +1°C° 0 mm 5 mps 761 mmHg 82%
    05:00 +1°C° 0 mm 4 mps 761 mmHg 82%
    06:00 0°C° 0 mm 4 mps 761 mmHg 81%
    07:00 0°C° 0 mm 4 mps 762 mmHg 81%
    08:00 +1°C° 0 mm 4 mps 762 mmHg 78%
    09:00 +3°C° 0 mm 4 mps 762 mmHg 75%
    10:00 +4°C° 0 mm 3 mps 762 mmHg 72%
    11:00 +5°C° 0 mm 3 mps 762 mmHg 70%
    12:00 +7°C° 0 mm 3 mps 761 mmHg 67%
    13:00 +8°C° 0 mm 3 mps 761 mmHg 64%
    14:00 +8°C° 0 mm 3 mps 761 mmHg 66%
    15:00 +8°C° 0 mm 2 mps 761 mmHg 67%
    16:00 +8°C° 0 mm 2 mps 761 mmHg 69%
    17:00 +7°C° 0 mm 2 mps 761 mmHg 70%
    18:00 +7°C° 0 mm 2 mps 761 mmHg 72%
    19:00 +8°C° 0 mm 1 mps 761 mmHg 74%
    20:00 +7°C° 0 mm 1 mps 761 mmHg 76%
    21:00 +7°C° 0 mm 1 mps 761 mmHg 78%
    22:00 +7°C° 0 mm 1 mps 761 mmHg 80%
    23:00 +7°C° 0 mm 1 mps 761 mmHg 82%
    Show more